| time (UTC) | temp C | wind direction | speed KPH | gust KPH | rain 1hr cm | rain 24hr cm | rain mn cm | humidity % | barometer mb |
| 20260503220526 | 13 | 277 | 11.3 | 16.1 | 0.05 | 1.19 | 0.33 | 94 | 1016.2 |
| 20260503215550 | 13 | 285 | 14.5 | 19.3 | 0.05 | 1.19 | 0.33 | 93 | 1016.0 |
| 20260503214556 | 12 | 276 | 14.5 | 19.3 | 0.15 | 1.19 | 0.33 | 93 | 1015.9 |
| 20260503213610 | 13 | 286 | 6.4 | 16.1 | 0.28 | 1.19 | 0.33 | 93 | 1015.8 |
| 20260503212549 | 13 | 265 | 14.5 | 17.7 | 0.28 | 1.19 | 0.33 | 93 | 1015.8 |
| 20260503211549 | 13 | 277 | 16.1 | 22.5 | 0.28 | 1.19 | 0.33 | 93 | 1015.8 |
| 20260503210549 | 13 | 294 | 17.7 | 20.9 | 0.23 | 1.17 | 0.28 | 93 | 1015.6 |
| 20260503205526 | 13 | 293 | 16.1 | 20.9 | 0.28 | 1.17 | 0.28 | 92 | 1015.5 |
| 20260503204549 | 13 | 274 | 22.5 | 24.1 | 0.15 | 1.04 | 0.15 | 91 | 1015.4 |
| 20260503203536 | 13 | 272 | 20.9 | 24.1 | 0.05 | 0.91 | 0.05 | 91 | 1015.2 |
| 20260503202549 | 13 | 294 | 17.7 | 24.1 | 0.05 | 0.91 | 0.05 | 91 | 1014.9 |
| 20260503201549 | 13 | 289 | 19.3 | 24.1 | 0.05 | 0.91 | 0.05 | 91 | 1014.9 |
| 20260503200609 | 13 | 267 | 22.5 | 30.6 | 0.05 | 0.91 | 0.05 | 90 | 1014.9 |
| 20260503195549 | 13 | 290 | 20.9 | 27.4 | 0.00 | 0.89 | 0.00 | 90 | 1014.8 |
| 20260503194526 | 13 | 272 | 17.7 | 20.9 | 0.00 | 0.89 | 0.00 | 89 | 1014.9 |
| 20260503193610 | 13 | 280 | 20.9 | 24.1 | 0.00 | 0.89 | 0.00 | 89 | 1014.8 |
| 20260503192536 | 13 | 281 | 19.3 | 24.1 | 0.00 | 0.89 | 0.00 | 89 | 1014.7 |
| 20260503191549 | 13 | 266 | 17.7 | 24.1 | 0.00 | 0.89 | 0.00 | 89 | 1014.6 |
| 20260503190549 | 13 | 281 | 20.9 | 24.1 | 0.00 | 0.89 | 0.00 | 89 | 1014.6 |
| 20260503185609 | 13 | 290 | 19.3 | 24.1 | 0.00 | 0.89 | 0.00 | 89 | 1014.6 |
| 20260503184549 | 13 | 276 | 19.3 | 25.7 | 0.00 | 0.89 | 0.00 | 88 | 1014.6 |
| 20260503183526 | 13 | 290 | 17.7 | 22.5 | 0.00 | 0.89 | 0.00 | 88 | 1014.6 |
| 20260503182549 | 13 | 262 | 19.3 | 25.7 | 0.00 | 0.89 | 0.00 | 88 | 1014.4 |
| 20260503181536 | 13 | 282 | 19.3 | 25.7 | 0.00 | 0.89 | 0.00 | 88 | 1014.4 |
| 20260503180549 | 13 | 281 | 20.9 | 24.1 | 0.00 | 0.89 | 0.00 | 88 | 1014.4 |
| 20260503175609 | 13 | 286 | 17.7 | 20.9 | 0.00 | 0.89 | 0.00 | 88 | 1014.4 |
| 20260503174549 | 13 | 266 | 19.3 | 24.1 | 0.00 | 0.89 | 0.00 | 88 | 1014.5 |
| 20260503173549 | 13 | 281 | 22.5 | 25.7 | 0.00 | 0.89 | 0.00 | 88 | 1014.5 |
| 20260503172526 | 13 | 272 | 22.5 | 25.7 | 0.00 | 0.89 | 0.00 | 89 | 1014.5 |
| 20260503171549 | 13 | 274 | 19.3 | 22.5 | 0.00 | 0.89 | 0.00 | 89 | 1014.5 |
| 20260503170536 | 13 | 272 | 19.3 | 29.0 | 0.00 | 0.89 | 0.00 | 88 | 1014.5 |
| 20260503150526 | 13 | 284 | 22.5 | 25.7 | 0.00 | 0.89 | 0.00 | 86 | 1014.7 |
| 20260503130549 | 13 | 274 | 19.3 | 24.1 | 0.00 | 0.84 | 0.84 | 87 | 1015.4 |
| 20260503110549 | 12 | 279 | 17.7 | 22.5 | 0.00 | 0.84 | 0.84 | 91 | 1014.9 |
| 20260503081634 | 13 | 266 | 19.3 | 24.1 | 0.28 | 0.28 | 0.28 | 91 | 1013.6 |
| 20260503080526 | 15 | 258 | 22.5 | 25.7 | 0.23 | 0.23 | 0.23 | 89 | 1013.7 |
| 20260503072609 | 16 | 289 | 20.9 | 25.7 | 0.00 | 0.00 | 0.00 | 73 | 1013.0 |
| 20260503071548 | 16 | 292 | 20.9 | 27.4 | 0.00 | 0.00 | 0.00 | 75 | 1013.1 |
| 20260503070548 | 16 | 285 | 22.5 | 25.7 | 0.00 | 0.00 | 0.00 | 75 | 1013.1 |
| 20260503054527 | 15 | 262 | 24.1 | 32.2 | 0.00 | 0.00 | 0.00 | 86 | 1013.2 |
| 20260503053608 | 14 | 260 | 25.7 | 30.6 | 0.00 | 0.00 | 0.00 | 88 | 1013.2 |
| 20260503052557 | 16 | 262 | 29.0 | 37.0 | 0.00 | 0.00 | 0.00 | 87 | 1013.3 |
| 20260503051548 | 18 | 262 | 38.6 | 53.1 | 0.00 | 0.00 | 0.00 | 63 | 1013.0 |
| 20260503050548 | 19 | 265 | 30.6 | 37.0 | 0.00 | 0.00 | 0.00 | 52 | 1012.6 |
| 20260503045608 | 19 | 274 | 30.6 | 38.6 | 0.00 | 0.00 | 0.00 | 52 | 1012.5 |
| 20260503044709 | 18 | 302 | 30.6 | 37.0 | 0.00 | 0.00 | 0.00 | 54 | 1012.6 |
| 20260503043526 | 19 | 301 | 32.2 | 43.5 | 0.00 | 0.00 | 0.00 | 53 | 1012.6 |
| 20260503042548 | 19 | 272 | 40.2 | 70.8 | 0.00 | 0.00 | 0.00 | 54 | 1012.6 |
| 20260503041537 | 18 | 303 | 32.2 | 37.0 | 0.00 | 0.00 | 0.00 | 55 | 1012.7 |
| 20260503040548 | 17 | 280 | 29.0 | 37.0 | 0.00 | 0.00 | 0.00 | 62 | 1012.8 |
| 20260503035629 | 18 | 285 | 32.2 | 41.8 | 0.00 | 0.00 | 0.00 | 66 | 1013.0 |
| 20260503034608 | 18 | 280 | 35.4 | 41.8 | 0.00 | 0.05 | 0.00 | 52 | 1012.9 |
| 20260503033548 | 18 | 263 | 35.4 | 48.3 | 0.00 | 0.05 | 0.00 | 53 | 1013.0 |
| 20260503032526 | 18 | 282 | 35.4 | 41.8 | 0.00 | 0.05 | 0.00 | 57 | 1013.0 |
| 20260503031548 | 18 | 277 | 35.4 | 45.1 | 0.00 | 0.05 | 0.00 | 61 | 1013.1 |
| 20260503030537 | 19 | 273 | 35.4 | 41.8 | 0.00 | 0.08 | 0.00 | 59 | 1013.3 |
| 20260503025548 | 19 | 282 | 33.8 | 43.5 | 0.00 | 0.15 | 0.00 | 56 | 1013.2 |
| 20260503024548 | 19 | 288 | 37.0 | 45.1 | 0.00 | 0.20 | 0.00 | 54 | 1013.3 |
| 20260503023548 | 19 | 282 | 33.8 | 38.6 | 0.00 | 0.20 | 0.00 | 51 | 1013.4 |
| 20260503022548 | 18 | 276 | 35.4 | 45.1 | 0.00 | 0.20 | 0.00 | 55 | 1013.4 |
| 20260503021527 | 18 | 265 | 37.0 | 45.1 | 0.00 | 0.20 | 0.00 | 56 | 1013.6 |
| 20260503020548 | 18 | 287 | 37.0 | 46.7 | 0.00 | 0.20 | 0.00 | 57 | 1013.6 |
| 20260503015537 | 18 | 270 | 37.0 | 45.1 | 0.00 | 0.20 | 0.00 | 58 | 1013.6 |
| 20260503014548 | 17 | 303 | 37.0 | 48.3 | 0.00 | 0.20 | 0.00 | 57 | 1013.6 |
| 20260503013548 | 17 | 291 | 32.2 | 38.6 | 0.00 | 0.20 | 0.00 | 65 | 1013.7 |
| 20260503012548 | 17 | 285 | 29.0 | 45.1 | 0.00 | 0.20 | 0.00 | 64 | 1013.7 |
| 20260503011608 | 17 | 300 | 29.0 | 40.2 | 0.00 | 0.20 | 0.00 | 63 | 1013.7 |
| 20260503010527 | 17 | 310 | 32.2 | 43.5 | 0.00 | 0.20 | 0.00 | 65 | 1013.9 |
| 20260503005548 | 17 | 280 | 33.8 | 40.2 | 0.00 | 0.20 | 0.00 | 65 | 1013.9 |
| 20260503004537 | 17 | 277 | 27.4 | 37.0 | 0.00 | 0.20 | 0.00 | 66 | 1013.9 |
| 20260503003628 | 17 | 303 | 29.0 | 40.2 | 0.00 | 0.20 | 0.00 | 66 | 1013.9 |
| 20260503002548 | 16 | 310 | 30.6 | 40.2 | 0.00 | 0.20 | 0.00 | 66 | 1014.1 |
| 20260503001548 | 16 | 288 | 32.2 | 41.8 | 0.00 | 0.20 | 0.00 | 67 | 1014.2 |
| 20260503000548 | 16 | 288 | 30.6 | 43.5 | 0.00 | 0.20 | 0.00 | 68 | 1014.1 |
| 20260502235527 | 16 | 301 | 32.2 | 41.8 | 0.00 | 0.20 | 0.00 | 69 | 1013.9 |
| 20260502234548 | 16 | 285 | 25.7 | 38.6 | 0.00 | 0.20 | 0.00 | 70 | 1013.8 |
| 20260502233537 | 15 | 303 | 27.4 | 30.6 | 0.00 | 0.20 | 0.00 | 70 | 1013.9 |
| 20260502232548 | 15 | 288 | 27.4 | 35.4 | 0.00 | 0.20 | 0.00 | 72 | 1013.9 |
| 20260502231548 | 15 | 292 | 25.7 | 30.6 | 0.00 | 0.20 | 0.00 | 73 | 1014.0 |
| 20260502230548 | 14 | 303 | 24.1 | 25.7 | 0.00 | 0.20 | 0.00 | 75 | 1014.1 |
| 20260502225548 | 14 | 291 | 24.1 | 27.4 | 0.00 | 0.20 | 0.00 | 76 | 1014.1 |
| 20260502224526 | 13 | 293 | 22.5 | 25.7 | 0.00 | 0.20 | 0.00 | 78 | 1014.2 |
| 20260502223548 | 13 | 297 | 20.9 | 24.1 | 0.00 | 0.20 | 0.00 | 80 | 1014.0 |
| 20260502222537 | 13 | 298 | 22.5 | 25.7 | 0.00 | 0.20 | 0.00 | 81 | 1014.0 |
| 20260502221548 | 12 | 303 | 24.1 | 25.7 | 0.00 | 0.20 | 0.00 | 82 | 1014.0 |